Yangon, Myanmar

12:45 PM +0630 on December 15, 2017 (GMT +0630)
Yangon International

Weather History for VYYY - December, 2017

Change the Weather History Date:

Thursday, December 7, 2017

  Actual Average Record
Temperature  
Mean Temperature 79 °F -  
Max Temperature 89 °F - - ()
Min Temperature 69 °F - - ()
Cooling Degree Days 14    
Growing Degree Days 29 (Base 50)    
Moisture  
Dew Point 73 °F    
Average Humidity 76    
Maximum Humidity 94    
Minimum Humidity 51    
Precipitation  
Precipitation 0.00 in - - ()
Sea Level Pressure  
Sea Level Pressure 29.86 in    
Wind  
Wind Speed 4 mph ()    
Max Wind Speed 9 mph    
Max Gust Speed -    
Visibility 4.1 miles    
Events      
T = Trace of Precipitation, MM = Missing Value Source: Averaged Metar Reports

Daily Weather History Graph

Daily Weather History Graph

Search for Another Location

Airport or City:

Trip Planner

Search our weather history database for the weather conditions in past years. The results will help you decide how hot, cold, wet, or windy it might be!

Date:

Astronomy

Dec. 07, 2017 Rise Set
Actual Time 6:22 AM +0630 5:31 PM +0630
Civil Twilight 5:58 AM +0630 5:55 PM +0630
Nautical Twilight 5:31 AM +0630 6:21 PM +0630
Astronomical Twilight 5:05 AM +0630 6:48 PM +0630
Moon 9:31 PM +0630 (12/7) 9:46 AM +0630 (12/7)
Length of Visible Light 11h 56m
Length of Day
11h 09m
Waning Gibbous, 82% of the Moon is Illuminated
Dec 7
Waning Gibbous
Dec 10
Last Quarter
Dec 18
New
Dec 26
First Quarter
Jan 2
Full

Hourly Weather History & Observations

Time (+0630) Temp. Heat Index Dew Point Humidity Pressure Visibility Wind Dir Wind Speed Gust Speed Precip Events Conditions
12:00 AM 77.0 °F - 71.6 °F 83% 29.86 in 4.3 mi ENE 3.5 mph - N/A   Unknown
12:30 AM 77.0 °F - 71.6 °F 83% 29.86 in 4.3 mi ENE 3.5 mph - N/A   Unknown
5:00 AM 75.2 °F - 73.4 °F 94% 29.80 in 3.7 mi North 3.5 mph - N/A   Unknown
5:30 AM 73.4 °F - 69.8 °F 88% 29.83 in 3.7 mi North 5.8 mph - N/A   Unknown
6:00 AM 73.4 °F - 69.8 °F 88% 29.83 in 3.7 mi ENE 5.8 mph - N/A   Unknown
6:30 AM 74 °F - 72 °F 90% 29.86 in 4 mi NE 2.3 mph - -   Scattered Clouds
6:30 AM 73.4 °F - 69.8 °F 88% 29.86 in 3.7 mi North 5.8 mph - N/A   Unknown
7:00 AM 73.4 °F - 69.8 °F 88% 29.86 in 4.3 mi North 5.8 mph - N/A   Unknown
7:30 AM 75.2 °F - 68.0 °F 78% 29.86 in 4.3 mi North 6.9 mph - N/A   Unknown
8:00 AM 75.2 °F - 69.8 °F 83% 29.89 in 4.3 mi North 6.9 mph - N/A   Unknown
8:30 AM 77.0 °F - 69.8 °F 78% 29.89 in 4.3 mi NNE 6.9 mph - N/A   Unknown
9:30 AM 82 °F - 72 °F 65% 29.94 in 4 mi SSE 3.5 mph - -   Clear
9:30 AM 80.6 °F 83.9 °F 69.8 °F 70% 29.89 in 4.3 mi NE 6.9 mph - N/A   Unknown
10:00 AM 82.4 °F 87.2 °F 71.6 °F 70% 29.89 in 4.3 mi ENE 9.2 mph - N/A   Unknown
10:30 AM 84.2 °F 88.4 °F 69.8 °F 62% 29.89 in 4.3 mi ENE 9.2 mph - N/A   Unknown
11:00 AM 84.2 °F 88.4 °F 69.8 °F 62% 29.86 in 5.0 mi NE 5.8 mph - N/A   Scattered Clouds
11:30 AM 84.2 °F 88.4 °F 69.8 °F 62% 29.86 in 5.0 mi NE 5.8 mph - N/A   Scattered Clouds
12:00 PM 86.0 °F 96.9 °F 77.0 °F 74% 29.86 in 5.0 mi East 6.9 mph - N/A   Scattered Clouds
12:30 PM 90 °F - 74 °F 52% 29.85 in 4 mi SSE 2.3 mph - -   Partly Cloudy
12:30 PM 87.8 °F 99.7 °F 77.0 °F 70% 29.83 in 5.0 mi ENE 8.1 mph - N/A   Scattered Clouds
1:00 PM 87.8 °F 99.7 °F 77.0 °F 70% 29.83 in 5.0 mi ENE 8.1 mph - N/A   Mostly Cloudy
1:30 PM 87.8 °F 99.7 °F 77.0 °F 70% 29.83 in 5.0 mi ENE 6.9 mph - N/A   Mostly Cloudy
2:00 PM 87.8 °F 99.7 °F 77.0 °F 70% 29.80 in 5.0 mi East 6.9 mph - N/A   Mostly Cloudy
2:30 PM 87.8 °F 99.7 °F 77.0 °F 70% 29.80 in 5.0 mi NNE 4.6 mph - N/A   Mostly Cloudy
3:00 PM 87.8 °F 99.7 °F 77.0 °F 70% 29.80 in 5.0 mi NNE 3.5 mph - N/A   Mostly Cloudy
3:30 PM 89 °F - 73 °F 51% 29.80 in 4 mi NE 3.5 mph - -   Mostly Cloudy
3:30 PM 87.8 °F 99.7 °F 77.0 °F 70% 29.80 in 3.7 mi NE 4.6 mph - N/A   Mostly Cloudy
4:00 PM 87.8 °F 99.7 °F 77.0 °F 70% 29.80 in 3.7 mi NE 5.8 mph - N/A   Mostly Cloudy
5:00 PM 86.0 °F 95.1 °F 75.2 °F 70% 29.83 in 3.7 mi NE 2.3 mph - N/A   Mostly Cloudy
6:00 PM 84.2 °F 92.3 °F 75.2 °F 74% 29.83 in 3.7 mi NNE 4.6 mph - N/A   Mostly Cloudy
6:30 PM 82 °F - 74 °F 70% 29.87 in 3 mi NNW 1.2 mph - -   Partly Cloudy
6:30 PM 84.2 °F 92.3 °F 75.2 °F 74% 29.86 in 3.7 mi NE 3.5 mph - N/A   Mostly Cloudy
8:00 PM 80.6 °F 86.2 °F 75.2 °F 84% 29.89 in 3.7 mi North 3.5 mph - N/A   Mostly Cloudy
8:30 PM 80.6 °F 86.2 °F 75.2 °F 84% 29.89 in 3.7 mi NE 4.6 mph - N/A   Mostly Cloudy
9:00 PM 78.8 °F - 73.4 °F 83% 29.92 in 3.7 mi NE 4.6 mph - N/A   Mostly Cloudy
9:30 PM 78.8 °F - 73.4 °F 83% 29.92 in 3.7 mi NE 4.6 mph - N/A   Mostly Cloudy
10:00 PM 78.8 °F - 73.4 °F 83% 29.92 in 3.7 mi NE 3.5 mph - N/A   Scattered Clouds
10:30 PM 78.8 °F - 73.4 °F 83% 29.89 in 3.7 mi NNE 3.5 mph - N/A   Scattered Clouds
11:00 PM 77.0 °F - 71.6 °F 83% 29.89 in 3.7 mi NE 2.3 mph - N/A   Scattered Clouds
11:30 PM 77.0 °F - 71.6 °F 83% 29.89 in 3.7 mi NNE 2.3 mph - N/A   Scattered Clouds